RH
60 57 62 81 97 98 97 96 92 98 97 96 91 81 78 68 65 71 73 90 96 98 98 86 95 94 60
64 59 63 92 95 98 96 93 94 98 98 98 97 88 76 69 80 75 84 96 97 98 96 92 98 87 77
65 65 74 92 94 97 99 98 96 98 99 98 91 98 84 76 83 90 98 98 98 97 97 97 96 88 88
70 67 80 92 96 98 98 98 98 99 98 96 98 99 92 84 86 94 93 99 97 98 93 95 95 95 92
69 74 79 91 92 98 98 96 98 98 98 98 99 98 99 87 93 97 94 97 98 97 95 96 96 96 93
71 79 81 89 92 97 97 98 98 98 99 98 98 98 99 93 92 95 97 98 97 99 97 96 98 97 95
70 80 85 88 90 97 97 97 98 98 98 98 98 99 97 98 96 97 99 98 99 98 98 97 97 96 98
69 77 83 86 89 97 97 98 98 98 98 98 99 98 98 98 98 99 99 98 96 98 98 97 97 96 98
70 67 77 81 84 94 95 98 97 98 98 98 97 97 96 97 97 97 98 98 98 98 98 99 98 98 99
70 65 74 74 80 92 98 97 96 97 98 99 97 92 95 96 95 95 98 98 99 99 98 98 98 98 99
57 64 64 73 77 85 96 98 96 95 97 97 98 94 90 94 92 92 95 99 99 98 98 98 97 98 97
52 65 61 69 71 80 94 97 98 97 93 95 97 96 87 86 87 89 91 96 99 98 98 98 99 98 99
54 53 65 62 69 74 88 96 97 94 92 93 97 95 89 82 78 80 86 90 90 88 93 98 99 99 98
56 52 66 62 65 68 80 93 97 97 94 95 98 93 87 85 85 80 83 82 83 85 86 88 97 96 98
56 52 55 65 62 66 71 93 98 98 98 98 97 93 91 88 86 87 84 89 89 90 85 82 87 95 93
56 54 50 68 63 66 65 88 98 98 98 98 96 94 91 88 88 86 88 83 84 87 88 86 86 89 92
56 53 49 67 63 67 62 70 95 98 98 98 97 96 94 92 90 92 92 89 88 89 89 90 95 96 94